Regional Weather Roundup
Issued by NWS

Home | Current Version | Previous Version | Graphics & Text | Print | Product List | Glossary On
Versions: 1 2 3 4 5 6 7 8 9 10 11 12 13 14 15 16 17 18 19 20 21 22 23 24 25 26 27 28 29 30 31 32 33 34 35 36 37 38 39 40 41 42 43 44 45 46 47 48 49 50
000
ASUS43 KLSX 231657
RWRMO

WEATHER SUMMARY FOR MISSOURI
NATIONAL WEATHER SERVICE SPRINGFIELD MO
1200 PM CDT SUN JUL 23 2017

NOTE: "FAIR" INDICATES FEW OR NO CLOUDS BELOW 12,000 FEET WITH NO
       SIGNIFICANT WEATHER AND/OR OBSTRUCTIONS TO VISIBILITY.
       CURRENT SKY AND/OR WEATHER CONDITIONS ARE NOT AVAILABLE FOR
       CHILLICOTHE AND FARMINGTON.

MOZ001>031-035>038-043-044-053-054-231800-
...NORTHERN AND WESTERN MISSOURI...

CITY           SKY/WX    TMP DP  RH WIND       PRES   REMARKS
KANSAS CTY INT MOSUNNY   87  72  60 VRB5      29.94S HX  93
LEE`S SUMMIT   CLOUDY    85  73  67 N6        29.94F HX  91
ST JOSEPH      SUNNY     86  77  74 N8        29.93F HX  97
CHILLICOTHE      N/A     88  77  69 VRB3      29.92S HX 100

$$
MOZ066>068-077>081-088>096-101>105-231800-
...SOUTHWEST MISSOURI...

CITY           SKY/WX    TMP DP  RH WIND       PRES   REMARKS
SPRINGFIELD    CLOUDY    87  66  49 NW8       29.97S
JOPLIN         CLOUDY    85  72  65 NE5       29.98S HX  91
BRANSON        PTSUNNY   91  66  43 E10G16    29.97F HX  94

$$
MOZ032>034-039>042-045>050-055>058-069>072-231800-
...CENTRAL MISSOURI...

CITY           SKY/WX    TMP DP  RH WIND       PRES   REMARKS
COLUMBIA       NOT AVBL
JEFFERSON CITY CLOUDY    84  71  65 CALM      29.93F
ROLLA          PTSUNNY   80  67  64 N3        29.96F
SEDALIA        CLOUDY    82  75  79 SW5       29.96S

$$
MOZ051-052-059>065-231800-
...EAST CENTRAL MISSOURI...

CITY           SKY/WX    TMP DP  RH WIND       PRES   REMARKS
ST LOUIS INTL  PTSUNNY   84  66  54 SW7       29.93F

$$
MOZ072>076-082>087-097>100-106>115-231800-
...SOUTH CENTRAL AND SOUTHEAST MISSOURI...

CITY           SKY/WX    TMP DP  RH WIND       PRES   REMARKS
CAPE GIRARDEAU SUNNY     89  64  43 VRB5      29.90S HX  90
POPLAR BLUFF   PTSUNNY   87  76  69 E7        29.90S HX  97
WEST PLAINS    MOSUNNY   92  63  38 NE5       29.96F HX  93

$$



USA.gov is the U.S. government's official web portal to all federal, state and local government web resources and services.